This is the latest recevied weather packets stored in our database for station/object WD9EKA. If no packets are shown the sender has not sent any weather packets the latest 10 day(s).
| Time | Temp. | Humidity | Pressure | Rain* | Wind** | Luminosity | Snow |
|---|---|---|---|---|---|---|---|
| 1777848010 | 17.22° C | 54% | 1007 hPa | 0 mm | - | - | - |
| 1777847374 | 17.22° C | 56% | 1006.9 hPa | 0 mm | - | - | - |
| 1777847065 | 17.22° C | 59% | 1007 hPa | 0 mm | - | - | - |
| 1777846746 | 17.22° C | 56% | 1007.1 hPa | 0 mm | - | - | - |
| 1777846425 | 17.22° C | 55% | 1006.9 hPa | 0 mm | - | - | - |
| 1777846114 | 16.67° C | 58% | 1006.9 hPa | 0 mm | - | - | - |
| 1777845753 | 16.67° C | 57% | 1007.1 hPa | 0 mm | - | - | - |
| 1777845449 | 16.67° C | 55% | 1006.7 hPa | 0 mm | - | - | - |
| 1777845130 | 16.67° C | 54% | 1006.7 hPa | 0 mm | - | - | - |
| 1777844809 | 16.67° C | 55% | 1006.6 hPa | 0 mm | - | - | - |
| 1777844489 | 16.67° C | 56% | 1006.3 hPa | 0 mm | - | - | - |
| 1777844170 | 16.67° C | 57% | 1006.6 hPa | 0 mm | - | - | - |
| 1777843849 | 16.67° C | 55% | 1006.7 hPa | 0 mm | - | - | - |
| 1777843529 | 17.22° C | 58% | 1007.1 hPa | 0 mm | - | - | - |
| 1777843210 | 17.22° C | 57% | 1007.3 hPa | 0 mm | - | - | - |
| 1777842889 | 17.22° C | 55% | 1007.3 hPa | 0 mm | - | - | - |
| 1777842570 | 17.22° C | 57% | 1007.2 hPa | 0 mm | - | - | - |
| 1777842250 | 16.67° C | 56% | 1007.4 hPa | 0 mm | - | - | - |
| 1777841929 | 16.67° C | 56% | 1007.5 hPa | 0 mm | - | - | - |
| 1777841609 | 16.67° C | 58% | 1007.6 hPa | 0 mm | - | - | - |
| 1777841290 | 16.67° C | 55% | 1007.9 hPa | 0 mm | - | - | - |
| 1777840969 | 16.67° C | 55% | 1007.7 hPa | 0 mm | - | - | - |
| 1777840650 | 16.11° C | 55% | 1008.1 hPa | 0 mm | - | - | - |
| 1777840330 | 16.11° C | 59% | 1008.1 hPa | 0 mm | - | - | - |
| 1777840010 | 16.11° C | 58% | 1008.3 hPa | 0 mm | - | - | - |
* Rain latest hour (hover to see other rain measurements)
** Current wind speed in m/s (hover to see current wind gust speed)